Date String (YYYY-MM-DD hh:mm:ss) UTC,Instrument flags,Ambient pressure (hPa),Sample flow (lpm),Bypass flow (lpm),Sample temperature (°C),Ambient temperature (°C),ASC tube jacket temperature (°C),LED temperature (°C),Box temperature (°C),Sample RH (%),Span deviation,Mass concentration (μg/m³),Mass concentration (μg/m³),Mass concentration (μg/m³)
DateTimeUTC,F1_M11,P_M11,Q1_M11,Q2_M11,T1_M11,T2_M11,T3_M11,T4_M11,T5_M11,U1_M11,ZSPAN_M11,X0_M11,X2_M11,X1_M11
2022-02-21 07:00:00,,0813.8,5.01,0.00,24.3,23.6,00.0,33.4,26.1,05.9,0000.0,0002.29,0001.19,0000.78
2022-02-21 07:01:00,,0813.7,4.99,0.00,24.3,23.6,00.0,33.4,26.1,06.1,0000.0,0002.25,0001.19,0000.78
2022-02-21 07:02:00,,0813.6,5.00,0.00,24.3,23.6,00.0,33.4,26.1,06.2,0000.0,0002.15,0001.16,0000.78
2022-02-21 07:03:00,,0813.6,5.00,0.00,24.3,23.6,00.0,33.4,26.1,05.8,0000.0,0002.10,0001.14,0000.78
2022-02-21 07:04:00,,0813.7,5.01,0.00,24.3,23.6,00.0,33.4,26.1,05.7,0000.0,0002.16,0001.16,0000.79
2022-02-21 07:05:00,,0813.6,4.98,0.00,24.3,23.6,00.0,33.4,26.1,05.6,0000.0,0002.16,0001.16,0000.80
2022-02-21 07:06:00,,0813.5,4.99,0.00,24.3,23.6,00.0,33.4,26.1,05.3,0000.0,0002.23,0001.18,0000.81
2022-02-21 07:07:00,,0813.5,5.02,0.00,24.3,23.6,00.0,33.4,26.1,05.2,0000.0,0002.20,0001.16,0000.81
2022-02-21 07:08:00,,0813.5,4.99,0.00,24.3,23.6,00.0,33.4,26.1,05.1,0000.0,0002.10,0001.15,0000.80
2022-02-21 07:09:00,,0813.4,5.00,0.00,24.3,23.5,00.0,33.4,26.1,05.1,0000.0,0001.97,0001.10,0000.78
2022-02-21 07:10:00,,0813.4,5.00,0.00,24.3,23.5,00.0,33.4,26.1,05.2,0000.0,0002.07,0001.08,0000.75
2022-02-21 07:11:00,,0813.4,4.99,0.00,24.3,23.5,00.0,33.4,26.0,05.2,0000.0,0002.11,0001.09,0000.74
2022-02-21 07:12:00,,0813.5,5.01,0.00,24.2,23.4,00.0,33.3,26.0,05.3,0000.0,0002.15,0001.08,0000.73
2022-02-21 07:13:00,,0813.5,5.01,0.00,24.2,23.4,00.0,33.3,26.0,05.3,0000.0,0002.19,0001.09,0000.72
2022-02-21 07:14:00,,0813.5,4.99,0.00,24.2,23.4,00.0,33.3,25.9,05.4,0000.0,0003.64,0001.10,0000.72
2022-02-21 07:15:00,,0813.5,5.01,0.00,24.1,23.3,00.0,33.3,25.9,05.4,0000.0,0004.06,0001.10,0000.71
2022-02-21 07:16:00,,0813.4,5.01,0.00,24.1,23.3,00.0,33.3,25.8,05.4,0000.0,0004.46,0001.10,0000.70
2022-02-21 07:17:00,,0813.4,4.99,0.00,24.1,23.3,00.0,33.3,25.7,05.5,0000.0,0004.43,0001.11,0000.69
2022-02-21 07:18:00,,0813.3,5.00,0.00,24.0,23.2,00.0,33.2,25.7,05.5,0000.0,0004.80,0001.12,0000.70
2022-02-21 07:19:00,,0813.3,4.99,0.00,24.0,23.2,00.0,33.2,25.7,05.5,0000.0,0004.82,0001.10,0000.69
2022-02-21 07:20:00,,0813.4,5.02,0.00,24.0,23.2,00.0,33.2,25.7,05.5,0000.0,0004.77,0001.08,0000.69
2022-02-21 07:21:00,,0813.3,4.99,0.00,24.0,23.2,00.0,33.2,25.7,05.5,0000.0,0004.87,0001.08,0000.69
2022-02-21 07:22:00,,0813.4,5.00,0.00,24.0,23.2,00.0,33.2,25.7,05.6,0000.0,0004.92,0001.04,0000.69
2022-02-21 07:23:00,,0813.4,5.02,0.00,24.0,23.3,00.0,33.1,25.7,05.7,0000.0,0004.83,0001.00,0000.69
2022-02-21 07:24:00,,0813.4,5.00,0.00,24.0,23.3,00.0,33.1,25.7,05.6,0000.0,0005.25,0001.00,0000.68
2022-02-21 07:25:00,,0813.5,4.99,0.00,24.0,23.3,00.0,33.1,25.7,05.5,0000.0,0003.92,0000.99,0000.67
2022-02-21 07:26:00,,0813.4,5.00,0.00,24.0,23.4,00.0,33.1,25.8,05.5,0000.0,0003.61,0000.98,0000.67
2022-02-21 07:27:00,,0813.4,5.02,0.00,24.0,23.3,00.0,33.1,25.8,05.7,0000.0,0003.36,0000.96,0000.68
2022-02-21 07:28:00,,0813.5,4.99,0.00,24.0,23.3,00.0,33.1,25.7,06.1,0000.0,0004.22,0000.99,0000.68
2022-02-21 07:29:00,,0813.4,5.00,0.00,24.1,23.4,00.0,33.1,25.8,06.0,0000.0,0004.39,0001.00,0000.69
2022-02-21 07:30:00,,0813.4,5.01,0.00,24.1,23.4,00.0,33.1,25.8,05.9,0000.0,0004.24,0001.01,0000.70
2022-02-21 07:31:00,,0813.5,5.00,0.00,24.1,23.4,00.0,33.1,25.8,05.8,0000.0,0004.44,0001.07,0000.71
2022-02-21 07:32:00,,0813.5,4.99,0.00,24.1,23.4,00.0,33.1,25.8,05.8,0000.0,0004.28,0001.07,0000.73
2022-02-21 07:33:00,,0813.4,5.02,0.00,24.1,23.4,00.0,33.1,25.9,05.8,0000.0,0003.99,0001.07,0000.74
2022-02-21 07:34:00,,0813.5,4.98,0.00,24.1,23.4,00.0,33.1,25.9,05.9,0000.0,0004.10,0001.10,0000.76
2022-02-21 07:35:00,,0813.5,5.00,0.00,24.1,23.4,00.0,33.1,25.9,05.8,0000.0,0003.74,0001.11,0000.77
2022-02-21 07:36:00,,0813.5,5.01,0.00,24.1,23.4,00.0,33.1,25.9,05.7,0000.0,0003.69,0001.11,0000.78
2022-02-21 07:37:00,,0813.5,4.99,0.00,24.1,23.3,00.0,33.1,25.9,05.7,0000.0,0003.62,0001.11,0000.78
2022-02-21 07:38:00,,0813.4,4.99,0.00,24.1,23.3,00.0,33.1,25.9,05.7,0000.0,0003.32,0001.13,0000.79
2022-02-21 07:39:00,,0813.4,5.01,0.00,24.0,23.2,00.0,33.1,25.7,05.7,0000.0,0002.39,0001.11,0000.78
2022-02-21 07:40:00,,0813.4,4.99,0.00,24.0,23.2,00.0,33.1,25.7,05.7,0000.0,0001.94,0001.07,0000.77
2022-02-21 07:41:00,,0813.3,5.01,0.00,24.0,23.2,00.0,33.1,25.7,05.6,0000.0,0001.95,0001.07,0000.77
2022-02-21 07:42:00,,0813.4,5.00,0.00,24.0,23.2,00.0,33.1,25.7,05.6,0000.0,0001.79,0001.03,0000.76
2022-02-21 07:43:00,,0813.3,4.99,0.00,24.0,23.2,00.0,33.1,25.7,05.7,0000.0,0001.81,0001.02,0000.74
2022-02-21 07:44:00,,0813.3,5.01,0.00,24.0,23.2,00.0,33.1,25.7,05.7,0000.0,0001.96,0001.04,0000.74
2022-02-21 07:45:00,,0813.3,5.00,0.00,24.0,23.2,00.0,33.1,25.7,05.7,0000.0,0001.84,0001.01,0000.72
2022-02-21 07:46:00,,0813.3,4.99,0.00,24.0,23.3,00.0,33.1,25.7,05.9,0000.0,0001.79,0001.01,0000.72
2022-02-21 07:47:00,,0813.3,5.01,0.00,24.0,23.3,00.0,33.1,25.7,05.8,0000.0,0001.71,0001.01,0000.73
2022-02-21 07:48:00,,0813.3,4.99,0.00,24.0,23.3,00.0,33.1,25.7,05.9,0000.0,0001.73,0001.01,0000.73
2022-02-21 07:49:00,,0813.3,5.00,0.00,24.0,23.3,00.0,33.1,25.7,06.3,0000.0,0001.69,0000.99,0000.74
2022-02-21 07:50:00,,0813.3,5.01,0.00,24.0,23.3,00.0,33.0,25.6,06.5,0000.0,0001.70,0000.98,0000.75
2022-02-21 07:51:00,,0813.3,4.99,0.00,24.0,23.2,00.0,33.0,25.6,06.2,0000.0,0001.85,0001.00,0000.76
2022-02-21 07:52:00,,0813.3,4.99,0.00,24.0,23.2,00.0,33.0,25.7,06.2,0000.0,0002.37,0001.02,0000.76
2022-02-21 07:53:00,,0813.4,5.01,0.00,24.0,23.2,00.0,33.0,25.6,06.2,0000.0,0002.46,0001.04,0000.78
2022-02-21 07:54:00,,0813.3,5.00,0.00,24.0,23.2,00.0,33.0,25.6,06.2,0000.0,0002.48,0001.04,0000.78
2022-02-21 07:55:00,,0813.3,5.01,0.00,24.0,23.2,00.0,33.0,25.6,06.2,0000.0,0002.40,0001.04,0000.80
2022-02-21 07:56:00,,0813.3,5.00,0.00,24.0,23.2,00.0,33.0,25.7,06.2,0000.0,0003.31,0001.08,0000.81
2022-02-21 07:57:00,,0813.2,4.99,0.00,24.0,23.2,00.0,33.0,25.7,06.1,0000.0,0003.25,0001.07,0000.81
2022-02-21 07:58:00,,0813.2,5.01,0.00,24.0,23.2,00.0,33.0,25.7,06.1,0000.0,0003.26,0001.07,0000.80
2022-02-21 07:59:00,,0813.2,5.01,0.00,24.0,23.2,00.0,33.0,25.7,06.1,0000.0,0003.29,0001.09,0000.80
